,,PA_Meas_PMT16A,,PR_Meas_QMR101_102,,RH_Meas_QMH101,,SR_Meas_QMS101,,TA_Meas_QMH101,,GenWind,,GenWind,
time,status,PA,status,PR,status,RH,status,SR,status,TA,status,DirAvg,status,SpdAvg,
2009-09-12, 00:00:04,VALID,919.333,VALID,0,VALID,94.233,VALID,0,VALID,21.299,VALID,359,VALID,0.618359,
2009-09-12, 00:01:04,VALID,919.337,VALID,0,VALID,94.1111,VALID,0,VALID,21.299,VALID,359,VALID,0.451172,
2009-09-12, 00:02:04,VALID,919.347,VALID,0,VALID,94.1187,VALID,0,VALID,21.299,VALID,359,VALID,0.424219,
2009-09-12, 00:03:04,VALID,919.33,VALID,0,VALID,94.2026,VALID,0,VALID,21.299,VALID,359,VALID,0.533594,
2009-09-12, 00:04:04,VALID,919.296,VALID,0,VALID,94.0882,VALID,0,VALID,21.2584,VALID,359,VALID,0.452344,
2009-09-12, 00:05:04,VALID,919.271,VALID,0,VALID,94.1644,VALID,0,VALID,21.26,VALID,359,VALID,0.905859,
2009-09-12, 00:06:04,VALID,919.262,VALID,0,VALID,94.1111,VALID,0.107441,VALID,21.221,VALID,359,VALID,0.765625,
2009-09-12, 00:07:04,VALID,919.229,VALID,0,VALID,94.3931,VALID,0,VALID,21.2015,VALID,359,VALID,0.855859,
2009-09-12, 00:08:04,VALID,919.196,VALID,0,VALID,94.2635,VALID,0,VALID,21.1413,VALID,359,VALID,0.807031,
2009-09-12, 00:09:04,VALID,919.181,VALID,0,VALID,94.294,VALID,0,VALID,21.1234,VALID,359,VALID,0.692969,
2009-09-12, 00:10:04,VALID,919.21,VALID,0,VALID,94.3931,VALID,0,VALID,21.1039,VALID,359,VALID,0.732813,
2009-09-12, 00:11:04,VALID,919.177,VALID,0,VALID,94.4999,VALID,0,VALID,21.0844,VALID,359,VALID,0.468359,
2009-09-12, 00:12:04,VALID,919.199,VALID,0,VALID,94.4541,VALID,0,VALID,21.0844,VALID,359,VALID,0.426562,
2009-09-12, 00:13:04,VALID,919.188,VALID,0,VALID,94.2635,VALID,0,VALID,21.0649,VALID,359,VALID,0.830469,
2009-09-12, 00:14:04,VALID,919.158,VALID,0,VALID,94.1111,VALID,0,VALID,21.0438,VALID,359,VALID,0.633594,
2009-09-12, 00:15:04,VALID,919.154,VALID,0,VALID,93.7985,VALID,0,VALID,21.0454,VALID,359,VALID,0.582422,
2009-09-12, 00:16:04,VALID,919.113,VALID,0,VALID,93.8747,VALID,0,VALID,21.0454,VALID,359,VALID,0.666406,
2009-09-12, 00:17:04,VALID,919.131,VALID,0,VALID,94.1187,VALID,0,VALID,21.0243,VALID,359,VALID,0.757422,
2009-09-12, 00:18:04,VALID,919.119,VALID,0,VALID,94.2026,VALID,0,VALID,21.0649,VALID,359,VALID,0.766797,
2009-09-12, 00:19:04,VALID,919.13,VALID,0,VALID,94.2712,VALID,0,VALID,21.0633,VALID,359,VALID,0.537891,
2009-09-12, 00:20:04,VALID,919.125,VALID,0,VALID,94.2483,VALID,0,VALID,21.1234,VALID,359,VALID,1.10664,
2009-09-12, 00:21:04,VALID,919.102,VALID,0,VALID,94.1111,VALID,0,VALID,21.164,VALID,359,VALID,0.544141,
2009-09-12, 00:22:04,VALID,919.093,VALID,0,VALID,93.8443,VALID,0,VALID,21.1624,VALID,359,VALID,0.821875,
2009-09-12, 00:23:04,VALID,919.044,VALID,0,VALID,93.7223,VALID,0,VALID,21.1624,VALID,359,VALID,0.228906,
2009-09-12, 00:24:04,VALID,919.023,VALID,0,VALID,93.3487,VALID,0,VALID,21.1429,VALID,359,VALID,0.440625,
2009-09-12, 00:25:04,VALID,919.006,VALID,0,VALID,94.1034,VALID,0,VALID,21.1624,VALID,359,VALID,0.803906,
2009-09-12, 00:26:04,VALID,918.985,VALID,0,VALID,94.0425,VALID,0,VALID,21.1234,VALID,359,VALID,0.636328,
2009-09-12, 00:27:04,VALID,918.967,VALID,0,VALID,94.3321,VALID,0,VALID,21.1234,VALID,359,VALID,0.6375,
2009-09-12, 00:28:04,VALID,918.911,VALID,0,VALID,94.5304,VALID,0,VALID,21.0633,VALID,359,VALID,0.555469,
2009-09-12, 00:29:04,VALID,918.911,VALID,0,VALID,94.942,VALID,0,VALID,21.0844,VALID,359,VALID,0.639844,
2009-09-12, 00:30:04,VALID,918.884,VALID,0,VALID,95.1783,VALID,0,VALID,21.1039,VALID,359,VALID,0.774609,
2009-09-12, 00:31:04,VALID,918.849,VALID,0,VALID,95.1707,VALID,0,VALID,21.0844,VALID,359,VALID,0.560156,
2009-09-12, 00:32:04,VALID,918.84,VALID,0,VALID,95.1174,VALID,0,VALID,21.0844,VALID,359,VALID,0.685938,
2009-09-12, 00:33:04,VALID,918.844,VALID,0,VALID,95.0869,VALID,0,VALID,21.0844,VALID,359,VALID,0.507422,
2009-09-12, 00:34:04,VALID,918.811,VALID,0,VALID,95.003,VALID,0,VALID,21.1039,VALID,359,VALID,0.385938,
2009-09-12, 00:35:04,VALID,918.762,VALID,0,VALID,94.8429,VALID,0,VALID,21.1039,VALID,359,VALID,0.0597656,
2009-09-12, 00:36:04,VALID,918.728,VALID,0,VALID,94.7743,VALID,0,VALID,21.1429,VALID,359,VALID,0.170312,
2009-09-12, 00:37:04,VALID,918.68,VALID,0,VALID,94.5761,VALID,0,VALID,21.1445,VALID,359,VALID,0.230078,
2009-09-12, 00:38:04,VALID,918.673,VALID,0,VALID,94.4313,VALID,0,VALID,21.164,VALID,359,VALID,0.484375,
2009-09-12, 00:39:04,VALID,918.625,VALID,0,VALID,94.4541,VALID,0,VALID,21.2031,VALID,359,VALID,0.283594,
2009-09-12, 00:40:04,VALID,918.589,VALID,0,VALID,93.8214,VALID,0,VALID,21.2047,VALID,359,VALID,0.397266,
2009-09-12, 00:41:04,VALID,918.559,VALID,0,VALID,93.0285,VALID,0,VALID,21.2031,VALID,359,VALID,0.426172,
2009-09-12, 00:42:04,VALID,918.532,VALID,0,VALID,93.3335,VALID,0,VALID,21.1836,VALID,359,VALID,0.765625,
2009-09-12, 00:43:04,VALID,918.537,VALID,0,VALID,93.3106,VALID,0,VALID,21.1445,VALID,359,VALID,0.748047,
2009-09-12, 00:44:04,VALID,918.524,VALID,0,VALID,93.364,VALID,0,VALID,21.125,VALID,359,VALID,0.626953,
2009-09-12, 00:45:04,VALID,918.543,VALID,0,VALID,93.3259,VALID,0,VALID,21.0844,VALID,359,VALID,0.512891,
2009-09-12, 00:46:04,VALID,918.499,VALID,0,VALID,93.4707,VALID,0,VALID,21.086,VALID,359,VALID,0.651953,
2009-09-12, 00:47:04,VALID,918.483,VALID,0,VALID,93.5393,VALID,0,VALID,21.0454,VALID,359,VALID,0.764063,
2009-09-12, 00:48:04,VALID,918.454,VALID,0,VALID,93.6613,VALID,0,VALID,21.0665,VALID,359,VALID,0.725391,
2009-09-12, 00:49:04,VALID,918.417,VALID,0,VALID,93.4555,VALID,0,VALID,21.0275,VALID,359,VALID,0.615625,
2009-09-12, 00:50:04,VALID,918.393,VALID,0,VALID,93.5241,VALID,0,VALID,20.9885,VALID,359,VALID,0.741016,
2009-09-12, 00:51:04,VALID,918.434,VALID,0,VALID,93.5851,VALID,0,VALID,20.9495,VALID,359,VALID,0.610937,
2009-09-12, 00:52:04,VALID,918.409,VALID,0,VALID,93.7909,VALID,0,VALID,20.9105,VALID,359,VALID,0.508984,
2009-09-12, 00:53:04,VALID,918.381,VALID,0,VALID,94.1339,VALID,0,VALID,20.8699,VALID,359,VALID,0.851953,
2009-09-12, 00:54:04,VALID,918.377,VALID,0,VALID,94.1111,VALID,0,VALID,20.8309,VALID,359,VALID,0.604688,
2009-09-12, 00:55:04,VALID,918.36,VALID,0,VALID,94.3321,VALID,0,VALID,20.8309,VALID,359,VALID,0.677734,
2009-09-12, 00:56:04,VALID,918.344,VALID,0,VALID,94.2254,VALID,0,VALID,20.7918,VALID,359,VALID,0.404687,
2009-09-12, 00:57:04,VALID,918.336,VALID,0,VALID,94.2483,VALID,0,VALID,20.7723,VALID,359,VALID,0.315234,
2009-09-12, 00:58:05,VALID,918.329,VALID,0,VALID,94.2864,VALID,0,VALID,20.7528,VALID,359,VALID,0.325781,
2009-09-12, 00:59:05,VALID,918.313,VALID,0,VALID,94.2864,VALID,0,VALID,20.7333,VALID,359,VALID,0.291406,
2009-09-12, 01:00:05,VALID,918.342,VALID,0,VALID,94.3321,VALID,0,VALID,20.7333,VALID,359,VALID,0.363281,
2009-09-12, 01:01:05,VALID,918.338,VALID,0,VALID,94.233,VALID,0,VALID,20.7333,VALID,359,VALID,0.23125,
2009-09-12, 01:02:05,VALID,918.387,VALID,0,VALID,93.8595,VALID,0,VALID,20.7333,VALID,359,VALID,0.251563,
2009-09-12, 01:03:05,VALID,918.361,VALID,0,VALID,93.2954,VALID,0,VALID,20.7333,VALID,359,VALID,0.0988281,
2009-09-12, 01:04:05,VALID,918.358,VALID,0,VALID,93.2649,VALID,0,VALID,20.7333,VALID,359,VALID,0.0597656,
2009-09-12, 01:05:05,VALID,918.37,VALID,0,VALID,92.9218,VALID,0,VALID,20.6943,VALID,359,VALID,0,
2009-09-12, 01:06:05,VALID,918.335,VALID,0,VALID,92.7465,VALID,0,VALID,20.6943,VALID,359,VALID,0,
2009-09-12, 01:07:05,VALID,918.32,VALID,0,VALID,92.6245,VALID,0,VALID,20.6943,VALID,359,VALID,0,
2009-09-12, 01:08:05,VALID,918.268,VALID,0,VALID,92.3958,VALID,0,VALID,20.6748,VALID,359,VALID,0,
2009-09-12, 01:09:05,VALID,918.234,VALID,0,VALID,92.411,VALID,0,VALID,20.6748,VALID,359,VALID,0,
2009-09-12, 01:10:05,VALID,918.237,VALID,0,VALID,92.1519,VALID,0,VALID,20.6553,VALID,359,VALID,0.507422,
2009-09-12, 01:11:05,VALID,918.211,VALID,0,VALID,92.5864,VALID,0,VALID,20.5773,VALID,359,VALID,0.633203,
2009-09-12, 01:12:05,VALID,918.157,VALID,0,VALID,93.4478,VALID,0,VALID,20.5578,VALID,359,VALID,0.835156,
2009-09-12, 01:13:05,VALID,918.203,VALID,0,VALID,93.4783,VALID,0,VALID,20.4798,VALID,359,VALID,0.806641,
2009-09-12, 01:14:05,VALID,918.169,VALID,0,VALID,93.7756,VALID,0,VALID,20.4408,VALID,359,VALID,1.23359,
2009-09-12, 01:15:05,VALID,918.189,VALID,0,VALID,93.9129,VALID,0,VALID,20.3823,VALID,359,VALID,1.12539,
2009-09-12, 01:16:05,VALID,918.166,VALID,0,VALID,94.0577,VALID,0,VALID,20.3628,VALID,359,VALID,1.17227,
2009-09-12, 01:17:05,VALID,918.147,VALID,0,VALID,94.4465,VALID,0,VALID,20.3238,VALID,359,VALID,0.647266,
2009-09-12, 01:18:05,VALID,918.166,VALID,0,VALID,94.6447,VALID,0,VALID,20.3043,VALID,155,VALID,1.00625,
2009-09-12, 01:19:05,VALID,918.186,VALID,0,VALID,95.0564,VALID,0,VALID,20.3043,VALID,156,VALID,0.748828,
2009-09-12, 01:20:05,VALID,918.167,VALID,0,VALID,95.3308,VALID,0,VALID,20.3043,VALID,156,VALID,0.442969,
2009-09-12, 01:21:05,VALID,918.203,VALID,0,VALID,95.468,VALID,0,VALID,20.3043,VALID,156,VALID,0.648828,
2009-09-12, 01:22:05,VALID,918.186,VALID,0,VALID,95.3689,VALID,0.107441,VALID,20.2637,VALID,156,VALID,0.475391,
2009-09-12, 01:23:05,VALID,918.166,VALID,0,VALID,95.4147,VALID,0,VALID,20.2458,VALID,156,VALID,0.629297,
2009-09-12, 01:24:05,VALID,918.144,VALID,0,VALID,95.5824,VALID,0,VALID,20.2263,VALID,156,VALID,0.523828,
2009-09-12, 01:25:05,VALID,918.119,VALID,0,VALID,95.6357,VALID,0.107441,VALID,20.2052,VALID,156,VALID,0.650391,
2009-09-12, 01:26:05,VALID,918.113,VALID,0,VALID,95.9864,VALID,0,VALID,20.2247,VALID,156,VALID,0.922656,
2009-09-12, 01:27:05,VALID,918.129,VALID,0,VALID,96.0627,VALID,0,VALID,20.2263,VALID,156,VALID,0.832422,
2009-09-12, 01:28:05,VALID,918.102,VALID,0,VALID,96.177,VALID,0,VALID,20.2263,VALID,156,VALID,0.836328,
2009-09-12, 01:29:05,VALID,918.136,VALID,0,VALID,96.2685,VALID,0,VALID,20.2068,VALID,156,VALID,1.02695,
2009-09-12, 01:30:05,VALID,918.127,VALID,0,VALID,96.4133,VALID,0,VALID,20.2458,VALID,156,VALID,1.00234,
2009-09-12, 01:31:05,VALID,918.122,VALID,0,VALID,96.4362,VALID,0,VALID,20.2263,VALID,156,VALID,1.17461,
2009-09-12, 01:32:05,VALID,918.133,VALID,0,VALID,96.4896,VALID,0,VALID,20.2263,VALID,156,VALID,0.7625,
2009-09-12, 01:33:05,VALID,918.143,VALID,0,VALID,96.5353,VALID,0.107441,VALID,20.2458,VALID,156,VALID,0.407422,
2009-09-12, 01:34:05,VALID,918.172,VALID,0,VALID,96.5811,VALID,0,VALID,20.2668,VALID,156,VALID,0.846094,
2009-09-12, 01:35:05,VALID,918.186,VALID,0,VALID,96.6344,VALID,0,VALID,20.2653,VALID,156,VALID,0.253125,
2009-09-12, 01:36:05,VALID,918.169,VALID,0,VALID,96.642,VALID,0,VALID,20.2442,VALID,156,VALID,0.523828,
2009-09-12, 01:37:05,VALID,918.196,VALID,0,VALID,96.6497,VALID,0,VALID,20.2637,VALID,156,VALID,0.471875,
2009-09-12, 01:38:05,VALID,918.205,VALID,0,VALID,96.6725,VALID,0,VALID,20.2653,VALID,156,VALID,0.544531,
2009-09-12, 01:39:05,VALID,918.181,VALID,0,VALID,96.7259,VALID,0,VALID,20.3043,VALID,156,VALID,0.671875,
2009-09-12, 01:40:05,VALID,918.198,VALID,0,VALID,96.7107,VALID,0,VALID,20.2832,VALID,156,VALID,0.435937,
2009-09-12, 01:41:05,VALID,918.227,VALID,0,VALID,96.6649,VALID,0,VALID,20.2863,VALID,156,VALID,0.369531,
2009-09-12, 01:42:05,VALID,918.213,VALID,0,VALID,96.5963,VALID,0,VALID,20.2263,VALID,156,VALID,0.321875,
2009-09-12, 01:43:05,VALID,918.222,VALID,0,VALID,96.642,VALID,0,VALID,20.2068,VALID,156,VALID,0.454688,
2009-09-12, 01:44:05,VALID,918.193,VALID,0,VALID,96.7107,VALID,0,VALID,20.2247,VALID,156,VALID,0.401172,
2009-09-12, 01:45:05,VALID,918.186,VALID,0,VALID,96.7259,VALID,0,VALID,20.2653,VALID,156,VALID,0.536328,
2009-09-12, 01:46:05,VALID,918.145,VALID,0,VALID,96.7259,VALID,0,VALID,20.2653,VALID,156,VALID,0.305078,
2009-09-12, 01:47:05,VALID,918.147,VALID,0,VALID,96.6878,VALID,0,VALID,20.2458,VALID,156,VALID,0.553516,
2009-09-12, 01:48:05,VALID,918.142,VALID,0,VALID,96.6954,VALID,0,VALID,20.2458,VALID,156,VALID,0.636719,
2009-09-12, 01:49:05,VALID,918.087,VALID,0,VALID,96.7107,VALID,0,VALID,20.2458,VALID,156,VALID,0.788672,
2009-09-12, 01:50:05,VALID,918.092,VALID,0,VALID,96.7107,VALID,0,VALID,20.2473,VALID,156,VALID,0.760938,
2009-09-12, 01:51:05,VALID,918.099,VALID,0,VALID,96.6954,VALID,0,VALID,20.2458,VALID,156,VALID,0.671484,
2009-09-12, 01:52:05,VALID,918.076,VALID,0,VALID,96.6878,VALID,0,VALID,20.2068,VALID,156,VALID,0.726953,
2009-09-12, 01:53:05,VALID,918.074,VALID,0,VALID,96.6878,VALID,0,VALID,20.1857,VALID,156,VALID,0.705078,
2009-09-12, 01:54:05,VALID,918.045,VALID,0,VALID,96.6725,VALID,0,VALID,20.2068,VALID,156,VALID,0.721484,
2009-09-12, 01:55:05,VALID,918.072,VALID,0,VALID,96.6878,VALID,0,VALID,20.1888,VALID,156,VALID,0.564062,
2009-09-12, 01:56:05,VALID,918.061,VALID,0,VALID,96.6878,VALID,0,VALID,20.1873,VALID,156,VALID,0.463672,
2009-09-12, 01:57:05,VALID,918.055,VALID,0,VALID,96.5963,VALID,0,VALID,20.1288,VALID,156,VALID,0.563672,
2009-09-12, 01:58:05,VALID,918.04,VALID,0,VALID,96.6725,VALID,0,VALID,20.1288,VALID,156,VALID,0.634766,
2009-09-12, 01:59:05,VALID,918.027,VALID,0,VALID,96.7335,VALID,0,VALID,20.1498,VALID,156,VALID,0.666406,
2009-09-12, 02:00:05,VALID,918.028,VALID,0,VALID,96.8174,VALID,0,VALID,20.1888,VALID,156,VALID,0.645703,
2009-09-12, 02:01:05,VALID,917.996,VALID,0,VALID,96.8631,VALID,0,VALID,20.2068,VALID,156,VALID,0.625,
2009-09-12, 02:02:05,VALID,918.001,VALID,0,VALID,96.8707,VALID,0,VALID,20.2458,VALID,156,VALID,0.524219,
2009-09-12, 02:03:05,VALID,918.005,VALID,0,VALID,96.8174,VALID,0,VALID,20.2263,VALID,156,VALID,0.301562,
2009-09-12, 02:04:05,VALID,918.01,VALID,0,VALID,96.7411,VALID,0,VALID,20.1873,VALID,156,VALID,0.360547,
2009-09-12, 02:05:05,VALID,918.024,VALID,0,VALID,96.7716,VALID,0.107441,VALID,20.2068,VALID,156,VALID,0.708594,
2009-09-12, 02:06:05,VALID,917.975,VALID,0,VALID,96.7564,VALID,0,VALID,20.2068,VALID,156,VALID,0.817578,
2009-09-12, 02:07:05,VALID,917.939,VALID,0,VALID,96.703,VALID,0,VALID,20.1678,VALID,156,VALID,0.755859,
2009-09-12, 02:08:05,VALID,917.988,VALID,0,VALID,96.6039,VALID,0,VALID,20.1303,VALID,156,VALID,0.706641,
2009-09-12, 02:09:05,VALID,917.982,VALID,0,VALID,96.4972,VALID,0,VALID,20.0703,VALID,156,VALID,0.834375,
2009-09-12, 02:10:05,VALID,917.982,VALID,0,VALID,96.4133,VALID,0,VALID,20.0118,VALID,156,VALID,0.802734,
2009-09-12, 02:11:05,VALID,917.979,VALID,0,VALID,96.2837,VALID,0,VALID,19.9548,VALID,156,VALID,0.689844,
2009-09-12, 02:12:05,VALID,917.972,VALID,0,VALID,96.3447,VALID,0,VALID,19.9533,VALID,156,VALID,0.683984,
2009-09-12, 02:13:05,VALID,917.96,VALID,0,VALID,96.4438,VALID,0,VALID,19.9743,VALID,156,VALID,0.932031,
2009-09-12, 02:14:05,VALID,917.96,VALID,0,VALID,96.4972,VALID,0,VALID,19.9938,VALID,156,VALID,0.925391,
2009-09-12, 02:15:05,VALID,917.973,VALID,0,VALID,96.4896,VALID,0,VALID,19.9548,VALID,156,VALID,0.922266,
2009-09-12, 02:16:05,VALID,917.971,VALID,0,VALID,96.4972,VALID,0,VALID,19.9548,VALID,156,VALID,0.910156,
2009-09-12, 02:17:05,VALID,917.968,VALID,0,VALID,96.4438,VALID,0,VALID,19.9143,VALID,156,VALID,1.03516,
2009-09-12, 02:18:05,VALID,917.967,VALID,0,VALID,96.5506,VALID,0,VALID,19.8948,VALID,156,VALID,0.9375,
2009-09-12, 02:19:05,VALID,917.95,VALID,0,VALID,96.5582,VALID,0,VALID,19.8753,VALID,156,VALID,0.607422,
2009-09-12, 02:20:05,VALID,917.961,VALID,0,VALID,96.5201,VALID,0,VALID,19.8573,VALID,156,VALID,0.59375,
2009-09-12, 02:21:05,VALID,917.96,VALID,0,VALID,96.5506,VALID,0,VALID,19.8183,VALID,156,VALID,0.736328,
2009-09-12, 02:22:05,VALID,917.967,VALID,0,VALID,96.6268,VALID,0,VALID,19.8378,VALID,156,VALID,0.744141,
2009-09-12, 02:23:05,VALID,917.984,VALID,0,VALID,96.6573,VALID,0,VALID,19.8168,VALID,156,VALID,0.645703,
2009-09-12, 02:24:05,VALID,917.996,VALID,0,VALID,96.7183,VALID,0,VALID,19.8378,VALID,156,VALID,0.5125,
2009-09-12, 02:25:05,VALID,918.017,VALID,0,VALID,96.7335,VALID,0,VALID,19.8573,VALID,156,VALID,0.452344,
2009-09-12, 02:26:05,VALID,918.014,VALID,0,VALID,96.7259,VALID,0,VALID,19.8573,VALID,156,VALID,0.441406,
2009-09-12, 02:27:05,VALID,918.031,VALID,0,VALID,96.825,VALID,0,VALID,19.8768,VALID,156,VALID,0.462891,
2009-09-12, 02:28:05,VALID,918.021,VALID,0,VALID,96.825,VALID,0,VALID,19.8753,VALID,156,VALID,0.603906,
2009-09-12, 02:29:05,VALID,918.02,VALID,0,VALID,96.7869,VALID,0,VALID,19.8558,VALID,156,VALID,0.496484,
2009-09-12, 02:30:05,VALID,918.026,VALID,0,VALID,96.764,VALID,0,VALID,19.8363,VALID,156,VALID,0.450781,
2009-09-12, 02:31:05,VALID,918.054,VALID,0,VALID,96.7107,VALID,0,VALID,19.8183,VALID,156,VALID,0.535547,
2009-09-12, 02:32:05,VALID,918.069,VALID,0,VALID,96.7716,VALID,0,VALID,19.8378,VALID,156,VALID,0.755078,
2009-09-12, 02:33:05,VALID,918.061,VALID,0,VALID,96.8098,VALID,0,VALID,19.8183,VALID,156,VALID,0.893359,
2009-09-12, 02:34:05,VALID,918.046,VALID,0,VALID,96.7716,VALID,0,VALID,19.7973,VALID,156,VALID,0.673828,
2009-09-12, 02:35:05,VALID,918.023,VALID,0,VALID,96.7564,VALID,0,VALID,19.7778,VALID,156,VALID,0.803125,
2009-09-12, 02:36:05,VALID,917.999,VALID,0,VALID,96.7411,VALID,0,VALID,19.7778,VALID,156,VALID,0.353906,
2009-09-12, 02:37:05,VALID,917.958,VALID,0,VALID,96.7107,VALID,0,VALID,19.7193,VALID,156,VALID,0.6125,
2009-09-12, 02:38:05,VALID,917.914,VALID,0,VALID,96.7183,VALID,0,VALID,19.6998,VALID,156,VALID,0.563672,
2009-09-12, 02:39:05,VALID,917.88,VALID,0,VALID,96.6802,VALID,0,VALID,19.7013,VALID,156,VALID,0.596484,
2009-09-12, 02:40:05,VALID,917.885,VALID,0,VALID,96.7335,VALID,0,VALID,19.6998,VALID,156,VALID,0.701172,
2009-09-12, 02:41:05,VALID,917.867,VALID,0,VALID,96.8403,VALID,0,VALID,19.7598,VALID,156,VALID,0.708984,
2009-09-12, 02:42:05,VALID,917.851,VALID,0,VALID,96.8403,VALID,0,VALID,19.7388,VALID,156,VALID,0.664453,
2009-09-12, 02:43:05,VALID,917.89,VALID,0,VALID,96.7945,VALID,0,VALID,19.7388,VALID,156,VALID,0.682031,
2009-09-12, 02:44:05,VALID,917.88,VALID,0,VALID,96.7411,VALID,0,VALID,19.7388,VALID,156,VALID,0.752344,
2009-09-12, 02:45:05,VALID,917.861,VALID,0,VALID,96.6878,VALID,0,VALID,19.6998,VALID,156,VALID,0.854688,
2009-09-12, 02:46:05,VALID,917.879,VALID,0,VALID,96.6268,VALID,0,VALID,19.6818,VALID,156,VALID,0.587109,
2009-09-12, 02:47:05,VALID,917.842,VALID,0,VALID,96.5582,VALID,0,VALID,19.6428,VALID,156,VALID,0.752344,
2009-09-12, 02:48:05,VALID,917.867,VALID,0,VALID,96.5201,VALID,0,VALID,19.6233,VALID,156,VALID,0.928906,
2009-09-12, 02:49:05,VALID,917.882,VALID,0,VALID,96.5429,VALID,0,VALID,19.6428,VALID,156,VALID,0.782422,
2009-09-12, 02:50:05,VALID,917.891,VALID,0,VALID,96.5963,VALID,0,VALID,19.6623,VALID,156,VALID,0.822266,
2009-09-12, 02:51:05,VALID,917.953,VALID,0,VALID,96.6497,VALID,0,VALID,19.7013,VALID,156,VALID,0.827734,
2009-09-12, 02:52:05,VALID,917.958,VALID,0,VALID,96.642,VALID,0,VALID,19.6998,VALID,156,VALID,0.617578,
2009-09-12, 02:53:05,VALID,917.973,VALID,0,VALID,96.6115,VALID,0,VALID,19.7013,VALID,156,VALID,0.866016,
2009-09-12, 02:54:05,VALID,917.973,VALID,0,VALID,96.6115,VALID,0,VALID,19.6998,VALID,156,VALID,0.768359,
2009-09-12, 02:55:05,VALID,917.97,VALID,0,VALID,96.6497,VALID,0,VALID,19.7208,VALID,156,VALID,0.830469,
2009-09-12, 02:56:05,VALID,917.95,VALID,0,VALID,96.6039,VALID,0,VALID,19.7013,VALID,156,VALID,0.588672,
2009-09-12, 02:57:05,VALID,917.94,VALID,0,VALID,96.6115,VALID,0,VALID,19.6803,VALID,156,VALID,0.797656,
2009-09-12, 02:58:05,VALID,917.924,VALID,0,VALID,96.6115,VALID,0,VALID,19.6818,VALID,156,VALID,0.885547,
2009-09-12, 02:59:05,VALID,917.931,VALID,0,VALID,96.5506,VALID,0,VALID,19.6608,VALID,156,VALID,0.578516,
2009-09-12, 03:00:05,VALID,917.892,VALID,0,VALID,96.5048,VALID,0,VALID,19.6023,VALID,156,VALID,0.428906,
2009-09-12, 03:01:05,VALID,917.869,VALID,0,VALID,96.5353,VALID,0,VALID,19.6233,VALID,156,VALID,0.598047,
2009-09-12, 03:02:05,VALID,917.832,VALID,0,VALID,96.5124,VALID,0,VALID,19.6023,VALID,156,VALID,0.657422,
2009-09-12, 03:03:05,VALID,917.848,VALID,0,VALID,96.5277,VALID,0,VALID,19.6038,VALID,156,VALID,0.389062,
2009-09-12, 03:04:05,VALID,917.814,VALID,0,VALID,96.4819,VALID,0,VALID,19.5843,VALID,156,VALID,0.537109,
2009-09-12, 03:05:05,VALID,917.826,VALID,0,VALID,96.5124,VALID,0,VALID,19.5633,VALID,156,VALID,0.578906,
2009-09-12, 03:06:05,VALID,917.813,VALID,0,VALID,96.5277,VALID,0,VALID,19.5438,VALID,156,VALID,0.56875,
2009-09-12, 03:07:05,VALID,917.799,VALID,0,VALID,96.5963,VALID,0,VALID,19.5843,VALID,156,VALID,0.740625,
2009-09-12, 03:08:05,VALID,917.782,VALID,0,VALID,96.6039,VALID,0,VALID,19.5843,VALID,156,VALID,0.835156,
2009-09-12, 03:09:05,VALID,917.804,VALID,0,VALID,96.6192,VALID,0,VALID,19.5843,VALID,156,VALID,0.628906,
2009-09-12, 03:10:05,VALID,917.82,VALID,0,VALID,96.6649,VALID,0,VALID,19.5648,VALID,156,VALID,1.05352,
2009-09-12, 03:11:05,VALID,917.801,VALID,0,VALID,96.7259,VALID,0,VALID,19.5633,VALID,156,VALID,0.8625,
2009-09-12, 03:12:05,VALID,917.815,VALID,0,VALID,96.7259,VALID,0,VALID,19.5438,VALID,156,VALID,0.6625,
2009-09-12, 03:13:05,VALID,917.841,VALID,0,VALID,96.7488,VALID,0,VALID,19.5648,VALID,156,VALID,0.608594,
2009-09-12, 03:14:05,VALID,917.84,VALID,0,VALID,96.7488,VALID,0,VALID,19.5453,VALID,156,VALID,0.534766,
2009-09-12, 03:15:05,VALID,917.866,VALID,0,VALID,96.7411,VALID,0,VALID,19.5258,VALID,156,VALID,0.465234,
2009-09-12, 03:16:05,VALID,917.864,VALID,0,VALID,96.764,VALID,0,VALID,19.5258,VALID,156,VALID,0.614062,
2009-09-12, 03:17:05,VALID,917.863,VALID,0,VALID,96.7945,VALID,0,VALID,19.4853,VALID,156,VALID,0.866016,
2009-09-12, 03:18:05,VALID,917.858,VALID,0,VALID,96.7793,VALID,0,VALID,19.4658,VALID,156,VALID,0.637109,
2009-09-12, 03:19:05,VALID,917.834,VALID,0,VALID,96.7793,VALID,0.107441,VALID,19.4463,VALID,156,VALID,0.784375,
2009-09-12, 03:20:05,VALID,917.817,VALID,0,VALID,96.764,VALID,0,VALID,19.4283,VALID,156,VALID,0.837109,
2009-09-12, 03:21:05,VALID,917.839,VALID,0,VALID,96.9089,VALID,0,VALID,19.4268,VALID,156,VALID,0.897266,
2009-09-12, 03:22:05,VALID,917.822,VALID,0,VALID,96.8936,VALID,0,VALID,19.4478,VALID,156,VALID,0.917188,
2009-09-12, 03:23:05,VALID,917.827,VALID,0,VALID,96.947,VALID,0,VALID,19.4268,VALID,156,VALID,1.04141,
2009-09-12, 03:24:05,VALID,917.823,VALID,0,VALID,96.9241,VALID,0,VALID,19.4074,VALID,156,VALID,0.933984,
2009-09-12, 03:25:05,VALID,917.807,VALID,0,VALID,96.9394,VALID,0,VALID,19.3879,VALID,156,VALID,1.05898,
2009-09-12, 03:26:05,VALID,917.782,VALID,0,VALID,96.9089,VALID,0,VALID,19.3698,VALID,156,VALID,0.829687,
2009-09-12, 03:27:05,VALID,917.774,VALID,0,VALID,96.8784,VALID,0,VALID,19.3099,VALID,156,VALID,1.06992,
2009-09-12, 03:28:05,VALID,917.746,VALID,0,VALID,96.9012,VALID,0,VALID,19.3113,VALID,156,VALID,1.09297,
2009-09-12, 03:29:05,VALID,917.709,VALID,0,VALID,96.9698,VALID,0,VALID,19.3113,VALID,156,VALID,0.729688,
2009-09-12, 03:30:05,VALID,917.752,VALID,0,VALID,96.9241,VALID,0,VALID,19.2528,VALID,155,VALID,0.794141,
2009-09-12, 03:31:05,VALID,917.749,VALID,0,VALID,97.008,VALID,0,VALID,19.2723,VALID,155,VALID,1.07969,
2009-09-12, 03:32:05,VALID,917.718,VALID,0,VALID,97.0308,VALID,0,VALID,19.2723,VALID,155,VALID,0.893359,
2009-09-12, 03:33:05,VALID,917.759,VALID,0,VALID,97.0232,VALID,0,VALID,19.2528,VALID,155,VALID,1.02109,
2009-09-12, 03:34:05,VALID,917.74,VALID,0,VALID,97.0461,VALID,0,VALID,19.2723,VALID,155,VALID,0.458203,
2009-09-12, 03:35:05,VALID,917.76,VALID,0,VALID,97.1147,VALID,0,VALID,19.3113,VALID,155,VALID,0.609766,
2009-09-12, 03:36:05,VALID,917.783,VALID,0,VALID,97.1299,VALID,0,VALID,19.3113,VALID,155,VALID,0.958984,
2009-09-12, 03:37:05,VALID,917.797,VALID,0,VALID,97.0461,VALID,0.107441,VALID,19.2709,VALID,155,VALID,0.725391,
2009-09-12, 03:38:05,VALID,917.797,VALID,0,VALID,97.1071,VALID,0.107441,VALID,19.3099,VALID,155,VALID,0.997266,
2009-09-12, 03:39:05,VALID,917.802,VALID,0,VALID,97.1833,VALID,0.107441,VALID,19.3084,VALID,154,VALID,1.04883,
2009-09-12, 03:40:05,VALID,917.801,VALID,0,VALID,97.2138,VALID,0.107441,VALID,19.3879,VALID,153,VALID,1.21406,
2009-09-12, 03:41:05,VALID,917.769,VALID,0,VALID,97.2138,VALID,0.107441,VALID,19.4268,VALID,152,VALID,0.933594,
2009-09-12, 03:42:05,VALID,917.77,VALID,0,VALID,97.229,VALID,0.107441,VALID,19.4658,VALID,152,VALID,0.748828,
2009-09-12, 03:43:04,VALID,917.772,VALID,0,VALID,97.2443,VALID,0.107441,VALID,19.4644,VALID,152,VALID,0.629687,